Tracking 19407 objects as of 14-Dec-2018
HD Live streaming from Space Station
objects crossing your sky now

AUREOLE 2

Track AUREOLE 2 now!
10-day predictions
AUREOLE 2 is classified as:


NORAD ID: 7003
Int'l Code: 1973-107A
Perigee: 372.9 km
Apogee: 918.1 km
Inclination: 73.9 °
Period: 97.5 minutes
Semi major axis: 7016 km
RCS: 2.1042 m2 (large)
Launch date: December 26, 1973
Source: France (FR)
Launch site: PLESETSK MISSILE AND SPACE COMPLEX (PKMTR)
aabbcc
Your satellite tracking list
Your tracking list is empty




NASA's NSSDC Master Catalog

Two Line Element Set (TLE):
1  7003U 73107A   18347.86624835 +.00001603 +00000-0 +64821-4 0  9998
2  7003 073.9269 029.7609 0388449 253.5521 102.2639 14.77142918293742
Source of the keplerian elements: AFSPC